Regional Weather Roundup
Issued by NWS

Home | Current Version | Previous Version | Text Only | Print | Product List | Glossary On
Versions: 1 2 3 4 5 6 7 8 9 10 11 12 13 14 15 16 17 18 19 20 21 22 23 24 25 26 27 28 29 30 31 32 33 34 35 36 37 38 39 40 41 42 43 44 45 46 47 48 49 50
031
ASUS43 KMKX 221800
RWRWI

WISCONSIN REGIONAL WEATHER ROUNDUP
NATIONAL WEATHER SERVICE MILWAUKEE/SULLIVAN WI
100 PM CDT SAT JUL 22 2017

NOTE: "FAIR" INDICATES FEW OR NO CLOUDS BELOW 12,000 FEET WITH NO
SIGNIFICANT WEATHER AND/OR OBSTRUCTIONS TO VISIBILITY.

WIZ001-002-006>008-014>016-023>028-221900-
NORTHWEST WISCONSIN

CITY           SKY/WX    TMP DP  RH WIND       PRES   REMARKS
SUPERIOR ARPT  NOT AVBL
ASHLAND        CLOUDY    73  65  75 NE6       29.82S
6HR MIN TEMP:  63; 6HR MAX TEMP:  74;

HAYWARD        MOSUNNY   79  67  66 MISG      29.83S HX  81
6HR MIN TEMP:  65; 6HR MAX TEMP:  79;

SIREN          PTSUNNY   80  65  61 W6        29.83F HX  82
CUMBERLAND     MOSUNNY   79  64  61 W6        29.84F HX  81
RICE LAKE      SUNNY     81  68  65 W6        29.85S HX  83
6HR MIN TEMP:  64; 6HR MAX TEMP:  81;

CHETEK         MOSUNNY   82  69  64 W3        29.83F HX  85
LADYSMITH      SUNNY     81  67  61 S7        29.85F HX  83
EAU CLAIRE     NOT AVBL
MENOMONIE      SUNNY     83  68  59 S3        29.82F HX  86
NEW RICHMOND   SUNNY     84  68  58 SW3       29.83S HX  87
OSCEOLA        SUNNY     83  67  58 N5        29.85S HX  85
$$

WIZ003>005-009-010-017-018-221900-
NORTH CENTRAL WISCONSIN

CITY           SKY/WX    TMP DP  RH WIND       PRES   REMARKS
MANITOWISH WTR CLOUDY    76  67  71 W5        29.83F
ARBOR VITAE    MOSUNNY   79  66  64 NW6       29.83S HX  81
WOODRUFF       MOSUNNY   79  66  64 NW6       29.83S HX  81
RHINELANDER    PTSUNNY   80  65  59 VRB7      29.84F HX  82
6HR MIN TEMP:  65; 6HR MAX TEMP:  81; 6HR PCP: TRACE;

EAGLE RIVER    PTSUNNY   78  61  56 W9        29.83F
LAND O LAKES   CLOUDY    77  62  59 W6        29.85S
PHILLIPS       MOSUNNY   80  68  67 SW5       29.82F HX  82
6HR MIN TEMP:  66; 6HR MAX TEMP:  80;

TOMAHAWK         N/A     79  64  60 W7        29.84S HX  80
MEDFORD        MOSUNNY   78  66  67 W5        29.85F HX  80
MERRILL        MOSUNNY   81  67  61 NW7       29.83F HX  84
6HR MIN TEMP:  64; 6HR MAX TEMP:  81;

$$

WIZ029-030-035-036-043>047-221900-
CENTRAL WISCONSIN

CITY           SKY/WX    TMP DP  RH WIND       PRES   REMARKS
WAUSAU         MOSUNNY   81  65  58 NW9       29.82S HX  83
6HR MIN TEMP:  66; 6HR MAX TEMP:  82;

MOSINEE        PTSUNNY   81  66  61 CALM      29.85S HX  83
MARSHFIELD     MOSUNNY   81  67  62 NW8       29.84S HX  83
6HR MIN TEMP:  67; 6HR MAX TEMP:  81;

STEVENS POINT  PTSUNNY   77  66  68 CALM      29.84F
WAUPACA        MOSUNNY   81  67  63 S3        29.83F HX  83
WAUTOMA        CLOUDY    78  69  73 VRB5      29.83F HX  80
6HR MIN TEMP:  65; 6HR MAX TEMP:  78;

WISC RAPIDS    PTSUNNY   79  70  74 VRB5      29.85S HX  82
6HR MIN TEMP:  66; 6HR MAX TEMP:  80;

CAMP DOUGLAS   NOT AVBL
$$

WIZ011>013-019>022-031-037>040-048>050-221900-
NORTHEAST WISCONSIN

CITY           SKY/WX    TMP DP  RH WIND       PRES   REMARKS
ANTIGO         PTSUNNY   77  65  66 W8        29.85S
SHAWANO        PTSUNNY   80  67  63 S5        29.83R HX  82
6HR MIN TEMP:  68; 6HR MAX TEMP:  80;

OCONTO         CLOUDY    76  64  66 S8        29.81F
STURGEON BAY     N/A     75  64  68 E5        29.83F
6HR MIN TEMP:  67; 6HR MAX TEMP:  75;

GREEN BAY      CLOUDY    80  69  69 CALM      29.81F HX  83
6HR MIN TEMP:  68; 6HR MAX TEMP:  81;

MANITOWOC      NOT AVBL
APPLETON       PTSUNNY   77  64  65 VRB5      29.82F
CLINTONVILLE   CLOUDY    75  64  69 CALM      29.83S
OSHKOSH        CLOUDY    78  68  71 CALM      29.82F HX  80
6HR MIN TEMP:  67; 6HR MAX TEMP:  78;

$$

WIZ032>034-041-042-053>061-221900-
SOUTHWEST WISCONSIN

CITY           SKY/WX    TMP DP  RH WIND       PRES   REMARKS
LA CROSSE      CLOUDY    79  71  76 CALM      29.83F HX  82
6HR MIN TEMP:  73; 6HR MAX TEMP:  79;

SPARTA         CLOUDY    74  68  82 CALM      29.85F
VIROQUA        CLOUDY    74  73  96 CALM      29.87F
BOSCOBEL       CLOUDY    80  72  76 E3        29.84S HX  84
6HR MIN TEMP:  72; 6HR MAX TEMP:  80;

PRAIRIE DU CHI CLOUDY    79  70  74 N8        29.83R HX  82
PLATTEVILLE    PTSUNNY   81  76  84 CALM      29.85S HX  88
$$

WIZ056-057-062-063-064-067-068-221900-
SOUTH CENTRAL WISCONSIN

CITY           SKY/WX    TMP DP  RH WIND       PRES   REMARKS
REEDSBURG      CLOUDY    73  72  96 N5        29.86S
BARABOO/DELLS  CLOUDY    72  68  87 CALM      29.86F
LONE ROCK      NOT AVBL
MINERAL POINT  CLOUDY    79  73  83 N5        29.86S HX  82
MADISON        CLOUDY    77  70  79 NW3       29.83F
6HR MIN TEMP:  71; 6HR MAX TEMP:  78;

MIDDLETON      CLOUDY    76  74  96 N5        29.86R
WATERTOWN      CLOUDY    74  73  96 NW5       29.84S
MONROE         CLOUDY    79  70  73 NW5       29.84F HX  81
JANESVILLE     CLOUDY    81  70  69 NW9       29.83S HX  84
$$

WIZ051-052-058>065-066-070>072-221900-
SOUTHEAST WISCONSIN

CITY           SKY/WX    TMP DP  RH WIND       PRES   REMARKS
MILWAUKEE      CLOUDY    79  71  76 NW7       29.82F HX  82
6HR MIN TEMP:  71; 6HR MAX TEMP:  79; 6HR PCP: TRACE;

WAUKESHA       CLOUDY    73  70  88 CALM      29.84F
MILWAUKEE/TIMM CLOUDY    75  66  73 NW6       29.83F
RACINE         CLOUDY    78  71  79 NW7       29.84S HX  80
6HR MIN TEMP:  71; 6HR MAX TEMP:  79;

KENOSHA        CLOUDY    79  69  71 NW8       29.83S HX  81
6HR MIN TEMP:  70; 6HR MAX TEMP:  80;

FOND DU LAC    CLOUDY    76  66  71 W3        29.83F
6HR MIN TEMP:  66; 6HR MAX TEMP:  77; 6HR PCP: TRACE;

SHEBOYGAN      CLOUDY    78  71  79 VRB5      29.82F HX  80
6HR MIN TEMP:  68; 6HR MAX TEMP:  78;

WEST BEND      CLOUDY    73  68  83 N5        29.84S
JUNEAU         CLOUDY    74  69  86 CALM      29.85F
$$

LSZ147-162-221900-
LAKE SUPERIOR

STATION/POSITION TIME  TEMP    WIND        PRES    WAVE
                       AIR SEA DIR/SP/G            HT/PER
                 (UTC) (F)     (DEG/KT/KT) (MB)    (FT/S)
W MID LAKE BUOY  1650   49 47  360/  8/ 10 1010.5R   2/ 5
DEVILS ISLAND    1700   55      40/  7/  8 1010.4F
SAXON HARBOR     1740   65     340/  3/  4 1010.2R
$$

LMZ867-665-643>646-221900-
LAKE MICHIGAN

STATION/POSITION TIME  TEMP    WIND        PRES    WAVE
                       AIR SEA DIR/SP/G            HT/PER
                 (UTC) (F)     (DEG/KT/KT) (MB)    (FT/S)
CHAMBERS ISLAND  1740   74      70/  3/  7 1009.5S
S GREEN BAY BUOY 1730   75 75   CALM  /  2 1009.8F
N MID LAKE BUOY  1650   68 67  340/  2/  4 1010.5F   1
NORTHPORT PIER   1740   74     110/  3/  4 1009.5F
KEWAUNEE LAKESHO 1730   74      40/  3/  6 1009.5F
SHEBOYGAN LAKESH 1700   68      10/  6/  6 1009.7F
PORT WASHINGTON  1740   72      50/  6/  8 1010.8S
ATWATER BUOY     1609   69 68   80/  2/  4 1010.4R
MILWAUKEE LAKESH 1730   69      50/  5/  6   N/A
S MID LAKE BUOY  1650   71 70  320/  4/  4 1009.5F   2/ 6
KENOSHA   LAKESH 1700   77     310/  8/ 13 1009.5
$$

TC  - TEMPERATURE IN CELSIUS
VSB - VISIBILITY IN STATUTE MILES
WCI - WIND CHILL INDEX
HX  - HEAT INDEX





USA.gov is the U.S. government's official web portal to all federal, state and local government web resources and services.